Regional Weather Roundup
Issued by NWS

Home | Current Version | Previous Version | Text Only | Print | Product List | Glossary On
Versions: 1 2 3 4 5 6 7 8 9 10 11 12 13 14 15 16 17 18 19 20 21 22 23 24 25 26 27 28 29 30 31 32 33 34 35 36 37 38 39 40 41 42 43 44 45 46 47 48 49 50
000
ASUS45 KABQ 301710
RWRNM
WEATHER ROUNDUP FOR NEW MEXICO
NATIONAL WEATHER SERVICE ALBUQUERQUE NM
1100 AM MDT THU OCT 30 2014

NOTE: "FAIR" MEANS FEW OR NO CLOUDS BELOW 12,000 FEET AGL WITH NO
       SIGNIFICANT WEATHER OR OBSTRUCTIONS TO VISION.

      THIS PRODUCT IS RELEASED AS TWO VERSIONS.  ONE VERSION NEAR
      THE TOP OF THE HOUR CONTAINING PRELIMINARY DATA FROM ALBUQUERQUE
      AND OTHER STATIONS.  A FINAL VERSION WITH ADDITIONAL DATA IS
      ISSUED ABOUT 10 MINUTES AFTER THE HOUR.

NMZ501-503-504-510>518-301800-
NORTHWEST PLATEAU/NORTHCENTRAL MOUNTAINS

CITY           SKY/WX    TMP DP  RH WIND       PRES   REMARKS
FARMINGTON     SUNNY     51  20  29 E8        30.35F
LOS ALAMOS     SUNNY     55  16  22 E5        30.42S
SANTA FE       SUNNY     59  13  16 N9        30.39S
TAOS           SUNNY     55  16  21 N5        30.41F
ANGEL FIRE     FAIR      49  12  22 CALM      30.47S

$$
NMZ402-403-502-505>509-301800-
WESTCENTRAL MOUNTAINS/SOUTHWEST MOUNTAINS

CITY           SKY/WX    TMP DP  RH WIND       PRES   REMARKS
GALLUP         SUNNY     57  18  21 NE6       30.38F
GRANTS         SUNNY     54  16  22 N8        30.42S
SILVER CITY    SUNNY     68  32  26 SE5       30.33S

$$
NMZ407-409-411-412-301800-
SOUTHERN DESERTS

CITY           SKY/WX    TMP DP  RH WIND       PRES   REMARKS
LORDSBURG      FAIR      66  37  34 S8        30.25F
DEMING         SUNNY     71  33  24 NE13      30.26S
LAS CRUCES     SUNNY     69  36  30 E5        30.28S
HOLLOMAN AFB   SUNNY     65  37  35 CALM      30.24F
T OR C         SUNNY     67  27  22 NE7       30.30S

$$
NMZ519>523-301800-
CENTRAL VALLEYS/CENTRAL HIGHLANDS

CITY           SKY/WX    TMP DP  RH WIND       PRES   REMARKS
ALBUQUERQUE    SUNNY     58  15  18 N10       30.35F
DOUBLE EAGLE   SUNNY     61  14  16 N7        30.38R
MORIARTY ARPT  FAIR      65  14  13 E12       30.40S
CLINES CORNERS SUNNY     58  15  18 E15       30.41R
BELEN          FAIR      59  22  24 E5        30.36R
SOCORRO        FAIR      61  22  22 N8        30.35R

$$
NMZ524>526-539-540-301800-
SOUTHCENTRAL MOUNTAINS

CITY           SKY/WX    TMP DP  RH WIND       PRES   REMARKS
RUIDOSO        SUNNY     63  19  19 NW9       30.40S

$$
NMZ527>531-301800-
NORTHEAST HIGHLANDS/NORTHEAST PLAINS

CITY           SKY/WX    TMP DP  RH WIND       PRES   REMARKS
LAS VEGAS      SUNNY     57  20  23 NE7G17    30.43R
RATON          SUNNY     59  22  24 N7        30.39F
CLAYTON        SUNNY     64  22  20 NE17G25   30.35R

$$
NMZ532>537-301800-
EASTCENTRAL PLAINS

CITY           SKY/WX    TMP DP  RH WIND       PRES   REMARKS
TUCUMCARI      SUNNY     68  24  19 NE22G30   30.29S
CANNON AFB     SUNNY     66  29  24 NE25      30.27R
CLOVIS AIRPORT SUNNY     68  30  24 NE29      30.30R

$$
NMZ028-029-538-301800-
SOUTHEAST PLAINS

CITY           SKY/WX    TMP DP  RH WIND       PRES   REMARKS
ROSWELL        SUNNY     69  35  28 N18G25    30.26R
CARLSBAD         N/A    N/A N/A N/A MISG      30.21S
HOBBS          SUNNY     68  36  30 NW15      30.21R


$$



USA.gov is the U.S. government's official web portal to all federal, state and local government web resources and services.